• In Netherlands
  • List of Countries
  • For 7 days
  • Water Temperature
  • Satellite Maps
  • Weather Map
  • Weather Widgets
  • user-avatar
    Login

    Hourly Weather Bruges

    Today, 23 March, Thursday

    Time Temperature Precipitation Wind Pressure Humidity
    00:00 +4°C° 0 mm 4 mps 758 mmHg 85%
    01:00 +3°C° 0 mm 4 mps 758 mmHg 86%
    02:00 +3°C° 0 mm 4 mps 758 mmHg 88%
    03:00 +3°C° 0 mm 4 mps 758 mmHg 89%
    04:00 +1°C° 0 mm 4 mps 758 mmHg 90%
    05:00 +1°C° 0 mm 4 mps 759 mmHg 91%
    06:00 +1°C° 0 mm 4 mps 759 mmHg 92%
    07:00 +3°C° 0 mm 5 mps 759 mmHg 85%
    08:00 +5°C° 0 mm 6 mps 759 mmHg 78%
    09:00 +8°C° 0 mm 6 mps 760 mmHg 71%
    10:00 +9°C° 0 mm 6 mps 760 mmHg 67%
    11:00 +10°C° 0 mm 6 mps 760 mmHg 63%
    12:00 +11°C° 0 mm 7 mps 760 mmHg 59%
    13:00 +12°C° 0 mm 7 mps 760 mmHg 59%
    14:00 +12°C° 0 mm 7 mps 760 mmHg 59%
    15:00 +12°C° 0 mm 7 mps 760 mmHg 59%
    16:00 +11°C° 0 mm 7 mps 761 mmHg 65%
    17:00 +10°C° 0 mm 7 mps 761 mmHg 70%
    18:00 +9°C° 0 mm 7 mps 761 mmHg 75%
    19:00 +8°C° 0 mm 7 mps 762 mmHg 78%
    20:00 +8°C° 0 mm 7 mps 763 mmHg 80%
    21:00 +6°C° 0 mm 8 mps 763 mmHg 82%
    22:00 +6°C° 0 mm 7 mps 764 mmHg 83%
    23:00 +6°C° 0 mm 7 mps 765 mmHg 85%

    Tomorrow, 24 March, Friday

    Time Temperature Precipitation Wind Pressure Humidity
    00:00 +5°C° 0 mm 6 mps 766 mmHg 86%
    01:00 +5°C° 0 mm 6 mps 766 mmHg 87%
    02:00 +5°C° 0 mm 7 mps 766 mmHg 88%
    03:00 +5°C° 0 mm 7 mps 766 mmHg 89%
    04:00 +4°C° 0 mm 7 mps 766 mmHg 90%
    05:00 +4°C° 0 mm 7 mps 767 mmHg 92%
    06:00 +4°C° 0 mm 7 mps 767 mmHg 93%
    07:00 +5°C° 0 mm 7 mps 768 mmHg 87%
    08:00 +6°C° 0 mm 7 mps 769 mmHg 81%
    09:00 +9°C° 0 mm 7 mps 770 mmHg 75%
    10:00 +10°C° 0 mm 7 mps 770 mmHg 71%
    11:00 +11°C° 0 mm 6 mps 770 mmHg 66%
    12:00 +13°C° 0 mm 6 mps 770 mmHg 62%
    13:00 +13°C° 0 mm 6 mps 770 mmHg 61%
    14:00 +14°C° 0 mm 6 mps 770 mmHg 61%
    15:00 +14°C° 0 mm 6 mps 770 mmHg 61%
    16:00 +11°C° 0 mm 6 mps 771 mmHg 66%
    17:00 +10°C° 0 mm 6 mps 771 mmHg 70%
    18:00 +9°C° 0 mm 6 mps 771 mmHg 75%
    19:00 +8°C° 0 mm 6 mps 772 mmHg 76%
    20:00 +7°C° 0 mm 6 mps 772 mmHg 77%
    21:00 +7°C° 0 mm 6 mps 773 mmHg 78%
    22:00 +5°C° 0 mm 6 mps 773 mmHg 79%
    23:00 +5°C° 0 mm 6 mps 773 mmHg 80%

    Day after tomorrow, 25 March, Saturday

    Time Temperature Precipitation Wind Pressure Humidity
    00:00 +4°C° 0 mm 6 mps 773 mmHg 81%
    01:00 +4°C° 0 mm 6 mps 773 mmHg 82%
    02:00 +3°C° 0 mm 6 mps 773 mmHg 84%
    03:00 +3°C° 0 mm 6 mps 772 mmHg 86%
    04:00 +3°C° 0 mm 6 mps 772 mmHg 86%
    05:00 +3°C° 0 mm 6 mps 772 mmHg 86%
    06:00 +2°C° 0 mm 6 mps 773 mmHg 86%
    07:00 +4°C° 0 mm 6 mps 772 mmHg 77%
    08:00 +6°C° 0 mm 7 mps 772 mmHg 69%
    09:00 +8°C° 0 mm 7 mps 772 mmHg 61%
    10:00 +9°C° 0 mm 7 mps 772 mmHg 57%
    11:00 +10°C° 0 mm 7 mps 772 mmHg 52%
    12:00 +12°C° 0 mm 8 mps 771 mmHg 47%
    13:00 +12°C° 0 mm 8 mps 771 mmHg 48%
    14:00 +12°C° 0 mm 8 mps 770 mmHg 48%
    15:00 +12°C° 0 mm 8 mps 769 mmHg 48%
    16:00 +10°C° 0 mm 8 mps 769 mmHg 52%
    17:00 +9°C° 0 mm 7 mps 769 mmHg 56%
    18:00 +8°C° 0 mm 7 mps 769 mmHg 60%
    19:00 +6°C° 0 mm 7 mps 769 mmHg 62%
    20:00 +6°C° 0 mm 7 mps 769 mmHg 65%
    21:00 +5°C° 0 mm 7 mps 769 mmHg 67%
    22:00 +5°C° 0 mm 7 mps 769 mmHg 70%
    23:00 +4°C° 0 mm 7 mps 769 mmHg 73%

    26 March, Sunday

    Time Temperature Precipitation Wind Pressure Humidity
    00:00 +4°C° 0 mm 6 mps 769 mmHg 75%
    01:00 +4°C° 0 mm 6 mps 768 mmHg 77%
    02:00 +3°C° 0 mm 6 mps 768 mmHg 79%
    03:00 +3°C° 0 mm 5 mps 768 mmHg 81%
    04:00 +3°C° 0 mm 5 mps 768 mmHg 83%
    05:00 +3°C° 0 mm 5 mps 768 mmHg 86%
    06:00 +2°C° 0 mm 5 mps 768 mmHg 88%
    07:00 +5°C° 0 mm 5 mps 768 mmHg 83%
    08:00 +7°C° 0 mm 5 mps 768 mmHg 78%
    09:00 +9°C° 0 mm 5 mps 768 mmHg 73%
    10:00 +10°C° 0 mm 5 mps 768 mmHg 70%
    11:00 +12°C° 0 mm 5 mps 768 mmHg 67%
    12:00 +13°C° 0 mm 5 mps 767 mmHg 65%
    13:00 +13°C° 0 mm 6 mps 767 mmHg 67%
    14:00 +11°C° 0 mm 6 mps 767 mmHg 69%
    15:00 +11°C° 0 mm 7 mps 767 mmHg 71%
    16:00 +10°C° 0 mm 6 mps 767 mmHg 75%
    17:00 +9°C° 0 mm 6 mps 767 mmHg 79%
    18:00 +8°C° 0 mm 5 mps 767 mmHg 82%
    19:00 +7°C° 0 mm 5 mps 767 mmHg 84%
    20:00 +6°C° 0 mm 5 mps 768 mmHg 86%
    21:00 +5°C° 0 mm 5 mps 768 mmHg 88%
    22:00 +5°C° 0 mm 5 mps 768 mmHg 89%
    23:00 +5°C° 0 mm 5 mps 768 mmHg 90%

    27 March, Monday

    Time Temperature Precipitation Wind Pressure Humidity
    00:00 +3°C° 0 mm 5 mps 769 mmHg 91%
    01:00 +3°C° 0 mm 5 mps 768 mmHg 92%
    02:00 +3°C° 0 mm 5 mps 768 mmHg 93%
    03:00 +3°C° 0 mm 5 mps 768 mmHg 94%
    04:00 +3°C° 0 mm 5 mps 768 mmHg 93%
    05:00 +2°C° 0 mm 5 mps 768 mmHg 93%
    06:00 +2°C° 0 mm 5 mps 768 mmHg 93%
    07:00 +5°C° 0 mm 5 mps 768 mmHg 82%
    08:00 +7°C° 0 mm 5 mps 769 mmHg 72%
    09:00 +9°C° 0 mm 6 mps 769 mmHg 62%
    10:00 +10°C° 0 mm 6 mps 768 mmHg 57%
    11:00 +11°C° 0 mm 6 mps 768 mmHg 53%
    12:00 +13°C° 0 mm 6 mps 768 mmHg 48%
    13:00 +13°C° 0 mm 6 mps 768 mmHg 48%
    14:00 +13°C° 0 mm 6 mps 768 mmHg 48%
    15:00 +13°C° 0 mm 6 mps 767 mmHg 47%
    16:00 +11°C° 0 mm 6 mps 767 mmHg 53%
    17:00 +10°C° 0 mm 5 mps 767 mmHg 59%
    18:00 +9°C° 0 mm 5 mps 767 mmHg 64%
    19:00 +8°C° 0 mm 5 mps 767 mmHg 66%
    20:00 +7°C° 0 mm 5 mps 768 mmHg 68%
    21:00 +6°C° 0 mm 5 mps 768 mmHg 70%
    22:00 +5°C° 0 mm 5 mps 768 mmHg 71%
    23:00 +5°C° 0 mm 5 mps 768 mmHg 73%

    28 March, Tuesday

    Time Temperature Precipitation Wind Pressure Humidity
    00:00 +3°C° 0 mm 5 mps 768 mmHg 74%
    01:00 +3°C° 0 mm 5 mps 768 mmHg 75%
    02:00 +3°C° 0 mm 5 mps 767 mmHg 75%
    03:00 +2°C° 0 mm 5 mps 767 mmHg 76%
    04:00 +2°C° 0 mm 5 mps 767 mmHg 75%
    05:00 +2°C° 0 mm 5 mps 767 mmHg 75%
    06:00 +2°C° 0 mm 5 mps 767 mmHg 74%
    07:00 +3°C° 0 mm 5 mps 767 mmHg 68%
    08:00 +6°C° 0 mm 5 mps 767 mmHg 62%
    09:00 +8°C° 0 mm 5 mps 767 mmHg 56%
    10:00 +10°C° 0 mm 5 mps 767 mmHg 56%
    11:00 +12°C° 0 mm 4 mps 767 mmHg 55%
    12:00 +14°C° 0 mm 4 mps 767 mmHg 54%
    13:00 +14°C° 0 mm 4 mps 767 mmHg 55%
    14:00 +15°C° 0 mm 4 mps 767 mmHg 56%
    15:00 +16°C° 0 mm 3 mps 766 mmHg 57%
    16:00 +14°C° 0 mm 3 mps 767 mmHg 64%
    17:00 +12°C° 0 mm 3 mps 767 mmHg 71%
    18:00 +12°C° 0 mm 2 mps 767 mmHg 79%
    19:00 +10°C° 0 mm 2 mps 767 mmHg 81%
    20:00 +9°C° 0 mm 2 mps 767 mmHg 82%
    21:00 +8°C° 0 mm 2 mps 768 mmHg 84%
    22:00 +8°C° 0 mm 2 mps 768 mmHg 84%
    23:00 +7°C° 0 mm 3 mps 768 mmHg 84%
    Show more